SCP
0 0 0 0 0 0 0 0 0 0 0 0 0 0 0 0 0 0 0 0 0 0
0 0 0 0 0 0 0 0 0 0 0 0 0 0 0 0 0 0 0 0 0 0
0 0 0 0 0 0 0 0 0 0 0 0 0 0 0 0 0 0 0 0 0 0
0 0 0 0 0 0 0 0 0 0 0 0 0 0 0 0 0 0 0 0 0 0
0 0 0 0 0 0 0 0 0 0 0 0 0 0 0 0 0 0 0 0 0 0
0 0 -0 0 0 0 0 0 0 0 0 0 0 0 0 0 0 0 0 0 0 0
0 0 0 -0 -0 -0 -0 -0 0 0 0 0 0 0 0 0 0 0 0 0 0 0
0 0 0 0 -0 -0 -0 -0 0 0 0 0 0 -0 -0 0 0 0 0 0 0 0
0 0 0 -0 -0 -0 -0 -0 -0 -0 0 0 0 0 -0 -0 0 0 0 0 0 0
0 0 0 0 0 -0 -0 -0 -0 -0 -0 0 0 0 0 0 0 0 0 0 0 0
0 0 0 0 0 0 0 -0 -0 -0 0 0 0 0 0 0 0 0 0 0 0 0
0 0 0 0 0 0 0 0 0 0 0 0 0 0 0 0 0 0 0 0 0 0
0 0 0 0 0 0 0 0 0 0 0 0 0 0 0 0 0 0 0 0 0 0
0 0 0 0 0 0 0 0 0 0 0 0 0 0 -0 0 0 0 0 0 0 0
Wind_Speed_500mb
36 33 26 24 24 24 29 34 40 43 43 50 55 70 91 104 107 108 108 107 108 108
41 42 40 36 30 29 30 34 40 44 48 48 49 56 65 87 104 108 109 108 109 111
31 33 37 43 44 40 34 34 38 43 46 49 49 53 60 69 83 98 108 110 111 114
38 38 36 36 38 43 47 47 40 37 43 47 52 51 58 69 72 80 92 106 111 114
46 42 41 41 40 42 43 44 46 47 42 44 50 52 56 65 71 77 84 88 103 113
54 54 52 52 51 48 48 48 48 48 49 46 46 51 54 60 66 75 79 83 89 99
62 62 60 59 60 59 58 57 56 54 53 54 53 49 52 58 62 70 79 82 87 90
63 64 68 70 70 70 68 65 64 63 60 60 59 59 59 55 58 65 75 81 87 93
69 72 74 78 82 85 81 76 72 68 66 66 65 60 62 64 65 63 71 79 82 88
74 78 80 82 86 90 95 95 89 83 79 75 72 68 67 63 65 69 74 77 80 85
78 80 84 89 92 93 93 96 103 104 93 89 83 76 72 71 70 71 77 82 84 85
84 87 88 89 91 96 102 104 104 107 112 109 101 91 84 79 79 80 82 82 85 88
80 84 100 108 112 113 113 114 113 113 112 115 120 112 100 92 87 89 89 87 88 87
84 84 89 95 108 112 121 129 133 132 127 120 120 123 119 107 97 93 93 92 90 88
Wind_Direction_500mb
11 4 345 326 309 290 280 285 289 284 277 275 269 262 255 250 248 246 244 243 241 243
359 357 358 350 336 318 304 291 281 279 283 278 274 268 261 256 252 249 248 246 245 245
355 350 348 346 347 347 332 313 299 291 285 282 277 270 266 260 256 252 251 250 248 247
356 354 350 343 336 333 335 337 329 308 295 288 283 275 271 266 262 258 254 253 251 250
352 352 348 345 344 338 330 324 324 328 324 304 293 283 274 270 268 262 258 255 253 252
341 342 342 341 340 337 332 330 323 316 315 320 313 297 285 274 271 268 263 259 257 256
329 331 333 333 331 330 329 327 324 323 318 307 301 304 298 287 279 272 267 262 258 256
321 322 321 322 323 323 322 321 319 317 316 316 313 303 295 291 287 279 272 266 262 259
314 313 313 314 315 315 314 314 314 314 313 310 309 313 309 298 289 278 274 270 266 264
305 302 301 302 303 305 306 307 307 307 308 308 308 311 309 309 299 287 277 271 268 265
303 299 296 295 296 295 295 296 299 301 301 301 301 302 304 307 302 291 285 277 271 266
305 302 298 294 292 290 291 290 289 291 294 296 295 296 298 300 300 295 289 283 276 267
295 292 295 297 295 292 289 288 286 285 284 286 289 290 291 293 294 293 292 287 282 279
295 289 286 286 288 291 291 290 285 283 280 279 280 283 285 285 287 288 290 286 282 279
Wind_Speed_850mb
36 33 26 24 24 24 29 34 40 43 43 50 55 70 91 104 107 108 108 107 108 108
41 42 40 36 30 29 30 34 40 44 48 48 49 56 65 87 104 108 109 108 109 111
31 33 37 43 44 40 34 34 38 43 46 49 49 53 60 69 83 98 108 110 111 114
38 38 36 36 38 43 47 47 40 37 43 47 52 51 58 69 72 80 92 106 111 114
46 42 41 41 40 42 43 44 46 47 42 44 50 52 56 65 71 77 84 88 103 113
54 54 52 52 51 48 48 48 48 48 49 46 46 51 54 60 66 75 79 83 89 99
62 62 60 59 60 59 58 57 56 54 53 54 53 49 52 58 62 70 79 82 87 90
63 64 68 70 70 70 68 65 64 63 60 60 59 59 59 55 58 65 75 81 87 93
69 72 74 78 82 85 81 76 72 68 66 66 65 60 62 64 65 63 71 79 82 88
74 78 80 82 86 90 95 95 89 83 79 75 72 68 67 63 65 69 74 77 80 85
78 80 84 89 92 93 93 96 103 104 93 89 83 76 72 71 70 71 77 82 84 85
84 87 88 89 91 96 102 104 104 107 112 109 101 91 84 79 79 80 82 82 85 88
80 84 100 108 112 113 113 114 113 113 112 115 120 112 100 92 87 89 89 87 88 87
84 84 89 95 108 112 121 129 133 132 127 120 120 123 119 107 97 93 93 92 90 88
Wind_Direction_850mb
11 4 345 326 309 290 280 285 289 284 277 275 269 262 255 250 248 246 244 243 241 243
359 357 358 350 336 318 304 291 281 279 283 278 274 268 261 256 252 249 248 246 245 245
355 350 348 346 347 347 332 313 299 291 285 282 277 270 266 260 256 252 251 250 248 247
356 354 350 343 336 333 335 337 329 308 295 288 283 275 271 266 262 258 254 253 251 250
352 352 348 345 344 338 330 324 324 328 324 304 293 283 274 270 268 262 258 255 253 252
341 342 342 341 340 337 332 330 323 316 315 320 313 297 285 274 271 268 263 259 257 256
329 331 333 333 331 330 329 327 324 323 318 307 301 304 298 287 279 272 267 262 258 256
321 322 321 322 323 323 322 321 319 317 316 316 313 303 295 291 287 279 272 266 262 259
314 313 313 314 315 315 314 314 314 314 313 310 309 313 309 298 289 278 274 270 266 264
305 302 301 302 303 305 306 307 307 307 308 308 308 311 309 309 299 287 277 271 268 265
303 299 296 295 296 295 295 296 299 301 301 301 301 302 304 307 302 291 285 277 271 266
305 302 298 294 292 290 291 290 289 291 294 296 295 296 298 300 300 295 289 283 276 267
295 292 295 297 295 292 289 288 286 285 284 286 289 290 291 293 294 293 292 287 282 279
295 289 286 286 288 291 291 290 285 283 280 279 280 283 285 285 287 288 290 286 282 279